This is the latest recevied weather packets stored in our database for station/object OK1TBM-13. If no packets are shown the sender has not sent any weather packets the latest 10 day(s).
| Time | Temp. | Humidity | Pressure | Rain* | Wind** | Luminosity | Snow |
|---|---|---|---|---|---|---|---|
| 1788106501 | 28.33° C | 42% | 1012.5 hPa | 0 mm | - | 123 W/m² | - |
| 1788106201 | 28.33° C | 42% | 1012.5 hPa | 0 mm | - | 137 W/m² | - |
| 1788105901 | 27.78° C | 42% | 1012.5 hPa | 0 mm | - | 60 W/m² | - |
| 1788105601 | 28.33° C | 41% | 1013.2 hPa | 0 mm | - | 157 W/m² | - |
| 1788105301 | 28.33° C | 39% | 1013.2 hPa | 0 mm | - | 174 W/m² | - |
| 1788105001 | 28.33° C | 39% | 1013.2 hPa | 0 mm | - | 172 W/m² | - |
| 1788104701 | 28.89° C | 40% | 1013.2 hPa | 0 mm | - | 198 W/m² | - |
| 1788104412 | 28.89° C | 41% | 1013.2 hPa | 0 mm | - | 215 W/m² | - |
| 1788104101 | 29.44° C | 45% | 1013.2 hPa | 0 mm | - | 234 W/m² | - |
| 1788103801 | 28.89° C | 45% | 1013.2 hPa | 0 mm | - | 263 W/m² | - |
| 1788103501 | 28.89° C | 46% | 1013.2 hPa | 0 mm | - | 258 W/m² | - |
| 1788102901 | 28.33° C | 47% | 1013.2 hPa | 0 mm | - | 86 W/m² | - |
| 1788102605 | 28.33° C | 46% | 1013.2 hPa | 0 mm | - | 279 W/m² | - |
| 1788102301 | 28.89° C | 46% | 1013.2 hPa | 0 mm | - | 308 W/m² | - |
| 1788102001 | 28.33° C | 45% | 1013.2 hPa | 0 mm | - | 326 W/m² | - |
| 1788101701 | 28.33° C | 46% | 1013.2 hPa | 0 mm | - | 344 W/m² | - |
| 1788101401 | 28.89° C | 46% | 1013.2 hPa | 0 mm | - | 352 W/m² | - |
| 1788101101 | 28.33° C | 46% | 1013.2 hPa | 0 mm | - | 365 W/m² | - |
| 1788100801 | 28.33° C | 46% | 1013.2 hPa | 0 mm | - | 378 W/m² | - |
| 1788100501 | 28.89° C | 45% | 1013.2 hPa | 0 mm | - | 392 W/m² | - |
| 1788100201 | 28.33° C | 45% | 1013.2 hPa | 0 mm | - | 409 W/m² | - |
| 1788099901 | 28.33° C | 46% | 1013.2 hPa | 0 mm | - | 421 W/m² | - |
| 1788099601 | 28.33° C | 46% | 1013.2 hPa | 0 mm | - | 436 W/m² | - |
| 1788099301 | 28.33° C | 47% | 1013.2 hPa | 0 mm | - | 449 W/m² | - |
| 1788099007 | 28.89° C | 45% | 1013.2 hPa | 0 mm | - | 467 W/m² | - |
* Rain latest hour (hover to see other rain measurements)
** Current wind speed in m/s (hover to see current wind gust speed)